Time,TemperatureF,DewpointF,PressureIn,WindDirection,WindDirectionDegrees,WindSpeedMPH,WindSpeedGustMPH,Humidity,HourlyPrecipIn,Conditions,Clouds,dailyrainin,SolarRadiationWatts/m^2,SoftwareType,DateUTC
2013-04-17 00:04:00,37.6,28.8,30.47,NE,34,0.0,1.0,70,0.00,,,0.00,0.0,meteohub,2013-04-17 05:04:00,
2013-04-17 00:10:00,37.6,28.8,30.47,NE,34,0.0,1.0,70,0.00,,,0.00,0.0,meteohub,2013-04-17 05:10:00,
2013-04-17 00:16:00,37.2,28.4,30.47,NE,34,0.0,1.0,70,0.00,,,0.00,0.0,meteohub,2013-04-17 05:16:00,
2013-04-17 00:22:00,37.2,28.4,30.47,NE,34,0.0,0.0,70,0.00,,,0.00,0.0,meteohub,2013-04-17 05:22:00,
2013-04-17 00:29:00,37.0,28.6,30.47,NE,34,0.0,0.0,71,0.00,,,0.00,0.0,meteohub,2013-04-17 05:29:00,
2013-04-17 00:35:00,36.7,28.6,30.47,NE,34,0.0,1.0,72,0.00,,,0.00,0.0,meteohub,2013-04-17 05:35:00,
2013-04-17 00:41:00,36.1,28.4,30.47,NE,34,1.0,1.0,73,0.00,,,0.00,0.0,meteohub,2013-04-17 05:41:00,
2013-04-17 00:47:00,35.8,28.4,30.47,NE,34,1.0,1.0,74,0.00,,,0.00,0.0,meteohub,2013-04-17 05:47:00,
2013-04-17 00:54:00,35.4,28.6,30.47,NE,34,1.0,2.0,76,0.00,,,0.00,0.0,meteohub,2013-04-17 05:54:00,
2013-04-17 01:00:00,35.1,28.6,30.47,NE,34,1.0,2.0,77,0.00,,,0.00,0.0,meteohub,2013-04-17 06:00:00,
2013-04-17 01:06:00,34.9,28.4,30.47,NE,34,1.0,3.0,77,0.00,,,0.00,0.0,meteohub,2013-04-17 06:06:00,
2013-04-17 01:12:00,34.7,28.6,30.48,NE,34,0.0,3.0,78,0.00,,,0.00,0.0,meteohub,2013-04-17 06:12:00,
2013-04-17 01:19:00,34.9,28.4,30.48,NE,34,0.0,1.0,77,0.00,,,0.00,0.0,meteohub,2013-04-17 06:19:00,
2013-04-17 01:25:00,34.9,28.4,30.48,NE,34,0.0,1.0,77,0.00,,,0.00,0.0,meteohub,2013-04-17 06:25:00,
2013-04-17 01:31:00,35.1,28.6,30.48,NE,34,0.0,1.0,77,0.00,,,0.00,0.0,meteohub,2013-04-17 06:31:00,
2013-04-17 01:37:00,35.1,28.6,30.48,NE,34,0.0,1.0,77,0.00,,,0.00,0.0,meteohub,2013-04-17 06:37:00,
2013-04-17 01:43:00,34.9,28.8,30.47,NE,34,1.0,1.0,78,0.00,,,0.00,0.0,meteohub,2013-04-17 06:43:00,
2013-04-17 01:49:00,35.1,28.6,30.47,NE,34,1.0,1.0,77,0.00,,,0.00,0.0,meteohub,2013-04-17 06:49:00,
2013-04-17 01:56:00,35.2,28.4,30.47,NE,34,0.0,2.0,76,0.00,,,0.00,0.0,meteohub,2013-04-17 06:56:00,
2013-04-17 02:02:00,35.4,28.2,30.47,NE,34,1.0,4.0,75,0.00,,,0.00,0.0,meteohub,2013-04-17 07:02:00,
2013-04-17 02:08:00,35.6,28.4,30.47,NE,34,1.0,4.0,75,0.00,,,0.00,0.0,meteohub,2013-04-17 07:08:00,
2013-04-17 02:14:00,35.6,28.4,30.46,NE,34,1.0,4.0,75,0.00,,,0.00,0.0,meteohub,2013-04-17 07:14:00,
2013-04-17 02:21:00,35.6,28.2,30.46,NE,34,4.0,4.0,74,0.00,,,0.00,0.0,meteohub,2013-04-17 07:21:00,
2013-04-17 02:27:00,36.0,28.2,30.46,NE,49,2.0,6.0,73,0.00,,,0.00,0.0,meteohub,2013-04-17 07:27:00,
2013-04-17 02:33:00,36.0,28.2,30.46,NE,36,3.0,6.0,73,0.00,,,0.00,0.0,meteohub,2013-04-17 07:33:00,
2013-04-17 02:39:00,36.0,28.2,30.46,NE,36,0.0,6.0,73,0.00,,,0.00,0.0,meteohub,2013-04-17 07:39:00,
2013-04-17 02:45:00,36.0,28.2,30.46,NE,36,2.0,6.0,73,0.00,,,0.00,0.0,meteohub,2013-04-17 07:45:00,
2013-04-17 02:52:00,35.8,28.0,30.47,NE,38,0.0,5.0,73,0.00,,,0.00,0.0,meteohub,2013-04-17 07:52:00,
2013-04-17 02:58:00,35.8,28.0,30.47,NE,38,2.0,4.0,73,0.00,,,0.00,0.0,meteohub,2013-04-17 07:58:00,
2013-04-17 03:04:00,35.4,27.7,30.47,NE,38,1.0,4.0,73,0.00,,,0.00,0.0,meteohub,2013-04-17 08:04:00,
2013-04-17 03:10:00,35.4,28.0,30.47,NE,39,0.0,3.0,74,0.00,,,0.00,0.0,meteohub,2013-04-17 08:10:00,
2013-04-17 03:16:00,35.4,27.7,30.47,NE,39,1.0,3.0,73,0.00,,,0.00,0.0,meteohub,2013-04-17 08:16:00,
2013-04-17 03:23:00,35.6,27.9,30.47,NE,39,0.0,3.0,73,0.00,,,0.00,0.0,meteohub,2013-04-17 08:23:00,
2013-04-17 03:29:00,35.6,27.9,30.47,NE,40,1.0,3.0,73,0.00,,,0.00,0.0,meteohub,2013-04-17 08:29:00,
2013-04-17 03:35:00,35.4,27.7,30.48,NE,40,0.0,3.0,73,0.00,,,0.00,0.0,meteohub,2013-04-17 08:35:00,
2013-04-17 03:41:00,35.4,27.7,30.48,NE,40,1.0,3.0,73,0.00,,,0.00,0.0,meteohub,2013-04-17 08:41:00,
2013-04-17 03:47:00,35.4,28.2,30.48,NE,40,0.0,3.0,75,0.00,,,0.00,0.0,meteohub,2013-04-17 08:47:00,
2013-04-17 03:52:00,35.2,28.0,30.48,NNW,340,1.0,3.0,75,0.00,,,0.00,0.0,meteohub,2013-04-17 08:52:00,
2013-04-17 03:58:00,35.1,28.2,30.48,NNW,340,1.0,3.0,76,0.00,,,0.00,0.0,meteohub,2013-04-17 08:58:00,
2013-04-17 04:04:00,34.9,28.0,30.47,NNW,340,1.0,4.0,76,0.00,,,0.00,0.0,meteohub,2013-04-17 09:04:00,
2013-04-17 04:10:00,34.5,28.0,30.47,NNW,340,1.0,4.0,77,0.00,,,0.00,0.0,meteohub,2013-04-17 09:10:00,
2013-04-17 04:17:00,34.5,28.0,30.47,NNW,342,2.0,3.0,77,0.00,,,0.00,0.0,meteohub,2013-04-17 09:17:00,
2013-04-17 04:23:00,34.7,27.9,30.46,NE,38,1.0,3.0,76,0.00,,,0.00,0.0,meteohub,2013-04-17 09:23:00,
2013-04-17 04:29:00,34.9,27.7,30.45,NE,36,5.0,5.0,75,0.00,,,0.00,0.0,meteohub,2013-04-17 09:29:00,
2013-04-17 04:35:00,35.1,27.9,30.44,NE,40,1.0,5.0,75,0.00,,,0.00,0.0,meteohub,2013-04-17 09:35:00,
2013-04-17 04:41:00,35.2,27.9,30.43,ENE,63,2.0,9.0,74,0.00,,,0.00,0.0,meteohub,2013-04-17 09:41:00,
2013-04-17 04:47:00,35.4,28.0,30.43,NE,52,2.0,9.0,74,0.00,,,0.00,0.0,meteohub,2013-04-17 09:47:00,
2013-04-17 04:52:00,35.4,28.0,30.43,NE,53,2.0,9.0,74,0.00,,,0.00,0.0,meteohub,2013-04-17 09:52:00,
2013-04-17 04:58:00,35.4,28.0,30.43,NE,43,3.0,9.0,74,0.00,,,0.00,0.0,meteohub,2013-04-17 09:58:00,
2013-04-17 05:04:00,35.4,28.0,30.42,NE,49,7.0,8.0,74,0.00,,,0.00,0.0,meteohub,2013-04-17 10:04:00,
2013-04-17 05:10:00,35.4,28.0,30.41,NE,56,1.0,8.0,74,0.00,,,0.00,0.0,meteohub,2013-04-17 10:10:00,
2013-04-17 05:17:00,35.2,27.9,30.41,North,11,4.0,8.0,74,0.00,,,0.00,0.0,meteohub,2013-04-17 10:17:00,
2013-04-17 05:23:00,35.2,27.9,30.40,NNE,27,4.0,8.0,74,0.00,,,0.00,0.0,meteohub,2013-04-17 10:23:00,
2013-04-17 05:29:00,35.2,27.9,30.40,NE,39,5.0,8.0,74,0.00,,,0.00,0.0,meteohub,2013-04-17 10:29:00,
2013-04-17 05:35:00,35.2,27.9,30.40,NE,55,2.0,8.0,74,0.00,,,0.00,0.0,meteohub,2013-04-17 10:35:00,
2013-04-17 05:42:00,35.1,27.9,30.39,NE,55,3.0,7.0,75,0.00,,,0.00,0.0,meteohub,2013-04-17 10:42:00,
2013-04-17 05:48:00,35.1,27.7,30.40,NE,40,2.0,7.0,74,0.00,,,0.00,0.0,meteohub,2013-04-17 10:48:00,
2013-04-17 05:54:00,34.9,27.7,30.39,NE,43,2.0,7.0,75,0.00,,,0.00,0.0,meteohub,2013-04-17 10:54:00,
2013-04-17 06:00:00,34.9,27.7,30.38,NNE,32,3.0,9.0,75,0.00,,,0.00,0.0,meteohub,2013-04-17 11:00:00,
2013-04-17 06:06:00,34.7,27.9,30.39,NE,38,0.0,9.0,76,0.00,,,0.00,0.0,meteohub,2013-04-17 11:06:00,
2013-04-17 06:13:00,34.9,28.0,30.39,NE,46,2.0,9.0,76,0.00,,,0.00,0.0,meteohub,2013-04-17 11:13:00,
2013-04-17 06:19:00,34.9,28.0,30.39,ENE,74,2.0,9.0,76,0.00,,,0.00,0.0,meteohub,2013-04-17 11:19:00,
2013-04-17 06:25:00,34.9,28.0,30.39,ENE,70,4.0,7.0,76,0.00,,,0.00,0.0,meteohub,2013-04-17 11:25:00,
2013-04-17 06:31:00,35.1,28.2,30.40,North,11,8.0,8.0,76,0.00,,,0.00,5.0,meteohub,2013-04-17 11:31:00,
2013-04-17 06:38:00,35.1,27.9,30.40,NE,51,5.0,7.0,75,0.00,,,0.00,9.0,meteohub,2013-04-17 11:38:00,
2013-04-17 06:44:00,35.2,28.0,30.40,NE,42,2.0,8.0,75,0.00,,,0.00,9.0,meteohub,2013-04-17 11:44:00,
2013-04-17 06:50:00,35.2,28.0,30.40,NE,41,4.0,8.0,75,0.00,,,0.00,12.0,meteohub,2013-04-17 11:50:00,
2013-04-17 06:56:00,35.4,28.0,30.41,NE,48,3.0,8.0,74,0.00,,,0.00,14.0,meteohub,2013-04-17 11:56:00,
2013-04-17 07:02:00,35.4,28.2,30.42,East,79,1.0,8.0,75,0.00,,,0.00,12.0,meteohub,2013-04-17 12:02:00,
2013-04-17 07:07:00,35.4,28.0,30.43,East,95,2.0,8.0,74,0.00,,,0.00,11.0,meteohub,2013-04-17 12:07:00,
2013-04-17 07:13:00,35.6,28.4,30.46,ESE,109,2.0,7.0,75,0.00,,,0.00,11.0,meteohub,2013-04-17 12:13:00,
2013-04-17 07:19:00,35.8,28.4,30.46,ENE,70,3.0,7.0,74,0.00,,,0.00,18.0,meteohub,2013-04-17 12:19:00,
2013-04-17 07:26:00,35.8,28.4,30.46,ENE,74,0.0,7.0,74,0.00,,,0.00,44.0,meteohub,2013-04-17 12:26:00,
2013-04-17 07:32:00,36.0,28.4,30.45,ESE,105,1.0,7.0,74,0.00,,,0.00,51.0,meteohub,2013-04-17 12:32:00,
2013-04-17 07:38:00,36.0,28.2,30.44,ENE,70,3.0,5.0,73,0.00,,,0.00,63.0,meteohub,2013-04-17 12:38:00,
2013-04-17 07:44:00,36.1,28.6,30.44,ENE,78,1.0,5.0,74,0.00,,,0.00,65.0,meteohub,2013-04-17 12:44:00,
2013-04-17 07:51:00,36.3,28.8,30.45,SE,143,4.0,5.0,74,0.00,,,0.00,77.0,meteohub,2013-04-17 12:51:00,
2013-04-17 07:57:00,36.3,28.8,30.44,East,92,0.0,7.0,74,0.00,,,0.00,77.0,meteohub,2013-04-17 12:57:00,
2013-04-17 08:03:00,36.3,28.8,30.42,East,93,2.0,7.0,74,0.00,,,0.00,74.0,meteohub,2013-04-17 13:03:00,
2013-04-17 08:09:00,36.3,28.8,30.41,East,96,2.0,7.0,74,0.00,,,0.00,93.0,meteohub,2013-04-17 13:09:00,
2013-04-17 08:16:00,36.3,28.8,30.41,ENE,74,4.0,10.0,74,0.00,,,0.00,90.0,meteohub,2013-04-17 13:16:00,
2013-04-17 08:22:00,36.3,28.8,30.40,ENE,71,4.0,10.0,74,0.00,,,0.00,95.0,meteohub,2013-04-17 13:22:00,
2013-04-17 08:28:00,36.3,28.8,30.42,East,97,2.0,10.0,74,0.00,,,0.00,84.0,meteohub,2013-04-17 13:28:00,
2013-04-17 08:34:00,36.3,28.8,30.42,ESE,113,2.0,13.0,74,0.00,,,0.00,76.0,meteohub,2013-04-17 13:34:00,
2013-04-17 08:41:00,36.5,28.9,30.42,ESE,120,2.0,13.0,74,0.00,,,0.00,79.0,meteohub,2013-04-17 13:41:00,
2013-04-17 08:47:00,36.5,28.9,30.43,East,96,3.0,13.0,74,0.00,,,0.00,88.0,meteohub,2013-04-17 13:47:00,
2013-04-17 08:53:00,36.7,29.5,30.43,East,95,2.0,7.0,75,0.00,,,0.00,125.0,meteohub,2013-04-17 13:53:00,
2013-04-17 08:59:00,36.7,29.5,30.42,ENE,59,1.0,7.0,75,0.00,,,0.00,105.0,meteohub,2013-04-17 13:59:00,
2013-04-17 09:06:00,36.9,29.7,30.42,East,101,1.0,7.0,75,0.00,,,0.00,118.0,meteohub,2013-04-17 14:06:00,
2013-04-17 09:12:00,37.0,29.5,30.42,ESE,108,3.0,8.0,74,0.00,,,0.00,105.0,meteohub,2013-04-17 14:12:00,
2013-04-17 09:18:00,37.0,29.5,30.41,ENE,61,4.0,8.0,74,0.00,,,0.00,134.0,meteohub,2013-04-17 14:18:00,
2013-04-17 09:25:00,37.0,29.5,30.41,ENE,61,1.0,8.0,74,0.00,,,0.00,141.0,meteohub,2013-04-17 14:25:00,
2013-04-17 09:32:00,37.2,30.0,30.40,ENE,60,2.0,5.0,75,0.00,,,0.00,139.0,meteohub,2013-04-17 14:32:00,
2013-04-17 09:37:00,37.4,30.2,30.39,ENE,60,1.0,5.0,75,0.00,,,0.00,113.0,meteohub,2013-04-17 14:37:00,
2013-04-17 09:43:00,37.2,30.0,30.39,NE,52,4.0,6.0,75,0.00,,,0.00,111.0,meteohub,2013-04-17 14:43:00,
2013-04-17 09:50:00,37.2,30.0,30.39,East,89,2.0,6.0,75,0.00,,,0.00,90.0,meteohub,2013-04-17 14:50:00,
2013-04-17 09:56:00,37.2,30.0,30.39,East,82,3.0,6.0,75,0.00,,,0.00,83.0,meteohub,2013-04-17 14:56:00,
2013-04-17 10:02:00,37.2,30.4,30.39,NNE,24,1.0,10.0,76,0.00,,,0.00,114.0,meteohub,2013-04-17 15:02:00,
2013-04-17 10:08:00,37.4,30.2,30.38,NNE,28,4.0,10.0,75,0.00,,,0.00,121.0,meteohub,2013-04-17 15:08:00,
2013-04-17 10:15:00,37.4,30.2,30.39,NNE,32,2.0,10.0,75,0.00,,,0.00,95.0,meteohub,2013-04-17 15:15:00,
2013-04-17 10:21:00,37.6,30.4,30.38,NNE,31,5.0,8.0,75,0.00,,,0.00,88.0,meteohub,2013-04-17 15:21:00,
2013-04-17 10:27:00,37.6,30.4,30.38,ENE,61,2.0,8.0,75,0.00,,,0.00,86.0,meteohub,2013-04-17 15:27:00,
2013-04-17 10:33:00,37.6,30.4,30.39,NE,34,2.0,8.0,75,0.00,,,0.00,90.0,meteohub,2013-04-17 15:33:00,
2013-04-17 10:39:00,37.6,30.4,30.40,East,85,3.0,8.0,75,0.00,,,0.00,77.0,meteohub,2013-04-17 15:39:00,
2013-04-17 10:45:00,37.6,30.7,30.40,East,96,2.0,8.0,76,0.00,,,0.00,86.0,meteohub,2013-04-17 15:45:00,
2013-04-17 10:52:00,37.6,30.4,30.41,East,99,5.0,6.0,75,0.00,,,0.00,98.0,meteohub,2013-04-17 15:52:00,
2013-04-17 10:58:00,37.6,30.4,30.43,East,93,2.0,8.0,75,0.00,,,0.00,102.0,meteohub,2013-04-17 15:58:00,
2013-04-17 11:04:00,37.8,30.9,30.42,SE,134,0.0,8.0,76,0.00,,,0.00,114.0,meteohub,2013-04-17 16:04:00,
2013-04-17 11:10:00,37.9,31.1,30.42,SE,140,3.0,6.0,76,0.00,,,0.00,121.0,meteohub,2013-04-17 16:10:00,
2013-04-17 11:16:00,37.9,31.1,30.42,NE,44,3.0,6.0,76,0.00,,,0.00,121.0,meteohub,2013-04-17 16:16:00,
2013-04-17 11:23:00,37.8,30.6,30.41,East,101,2.0,9.0,75,0.00,,,0.00,128.0,meteohub,2013-04-17 16:23:00,
2013-04-17 11:29:00,37.8,30.9,30.40,SE,128,2.0,9.0,76,0.00,,,0.00,137.0,meteohub,2013-04-17 16:29:00,
2013-04-17 11:35:00,37.9,31.1,30.39,East,101,6.0,9.0,76,0.00,,,0.00,135.0,meteohub,2013-04-17 16:35:00,
2013-04-17 11:41:00,37.8,30.6,30.39,NE,54,1.0,8.0,75,0.00,,,0.00,95.0,meteohub,2013-04-17 16:41:00,
2013-04-17 11:47:00,37.9,31.1,30.38,East,91,2.0,8.0,76,0.00,,,0.00,127.0,meteohub,2013-04-17 16:47:00,
2013-04-17 11:53:00,37.9,31.1,30.38,NE,55,0.0,8.0,76,0.00,,,0.00,116.0,meteohub,2013-04-17 16:53:00,
2013-04-17 12:00:00,37.9,31.1,30.37,NNE,22,3.0,8.0,76,0.00,,,0.00,155.0,meteohub,2013-04-17 17:00:00,
2013-04-17 12:06:00,38.1,31.3,30.36,NNE,13,4.0,9.0,76,0.00,,,0.00,137.0,meteohub,2013-04-17 17:06:00,
2013-04-17 12:12:00,38.3,31.5,30.35,NE,40,7.0,9.0,76,0.00,,,0.00,125.0,meteohub,2013-04-17 17:12:00,
2013-04-17 12:18:00,38.1,31.3,30.35,North,0,6.0,8.0,76,0.00,,,0.00,139.0,meteohub,2013-04-17 17:18:00,
2013-04-17 12:24:00,37.9,31.1,30.34,NE,51,4.0,8.0,76,0.00,,,0.00,113.0,meteohub,2013-04-17 17:24:00,
2013-04-17 12:31:00,37.9,31.1,30.33,NE,51,6.0,8.0,76,0.00,,,0.00,109.0,meteohub,2013-04-17 17:31:00,
2013-04-17 12:37:00,37.9,31.1,30.33,ENE,73,2.0,11.0,76,0.00,,,0.00,109.0,meteohub,2013-04-17 17:37:00,
2013-04-17 12:43:00,38.1,31.3,30.32,NE,55,2.0,11.0,76,0.00,,,0.00,123.0,meteohub,2013-04-17 17:43:00,
2013-04-17 12:49:00,38.1,31.3,30.31,NE,38,4.0,13.0,76,0.00,,,0.00,123.0,meteohub,2013-04-17 17:49:00,
2013-04-17 12:56:00,38.1,31.3,30.30,ENE,63,12.0,13.0,76,0.00,,,0.00,156.0,meteohub,2013-04-17 17:56:00,
2013-04-17 13:02:00,38.3,31.5,30.30,ENE,65,1.0,13.0,76,0.00,,,0.00,151.0,meteohub,2013-04-17 18:02:00,
2013-04-17 13:08:00,38.5,31.6,30.27,NE,36,5.0,13.0,76,0.00,,,0.00,241.0,meteohub,2013-04-17 18:08:00,
2013-04-17 13:14:00,38.8,32.0,30.27,NE,49,3.0,13.0,76,0.00,,,0.00,348.0,meteohub,2013-04-17 18:14:00,
2013-04-17 13:21:00,39.6,32.0,30.28,NNE,30,2.0,9.0,74,0.00,,,0.00,262.0,meteohub,2013-04-17 18:21:00,
2013-04-17 13:27:00,39.7,31.8,30.27,NE,49,2.0,9.0,73,0.00,,,0.00,236.0,meteohub,2013-04-17 18:27:00,
2013-04-17 13:33:00,39.7,31.8,30.27,ENE,78,3.0,9.0,73,0.00,,,0.00,197.0,meteohub,2013-04-17 18:33:00,
2013-04-17 13:39:00,39.6,31.6,30.26,NE,44,3.0,9.0,73,0.00,,,0.00,176.0,meteohub,2013-04-17 18:39:00,
2013-04-17 13:45:00,39.4,31.5,30.27,NE,47,3.0,11.0,73,0.00,,,0.00,155.0,meteohub,2013-04-17 18:45:00,
2013-04-17 13:51:00,39.6,31.6,30.26,NNE,26,2.0,11.0,73,0.00,,,0.00,132.0,meteohub,2013-04-17 18:51:00,
2013-04-17 13:58:00,39.6,31.6,30.25,NE,47,4.0,11.0,73,0.00,,,0.00,193.0,meteohub,2013-04-17 18:58:00,
2013-04-17 14:04:00,39.7,31.8,30.24,ENE,63,2.0,10.0,73,0.00,,,0.00,251.0,meteohub,2013-04-17 19:04:00,
2013-04-17 14:10:00,40.3,32.0,30.25,ESE,105,2.0,10.0,72,0.00,,,0.00,204.0,meteohub,2013-04-17 19:10:00,
2013-04-17 14:16:00,40.5,32.2,30.24,NE,40,2.0,8.0,72,0.00,,,0.00,202.0,meteohub,2013-04-17 19:16:00,
2013-04-17 14:22:00,40.5,31.8,30.25,NE,49,4.0,8.0,71,0.00,,,0.00,239.0,meteohub,2013-04-17 19:22:00,
2013-04-17 14:28:00,40.5,31.8,30.25,NNE,22,4.0,8.0,71,0.00,,,0.00,221.0,meteohub,2013-04-17 19:28:00,
2013-04-17 14:35:00,40.5,31.8,30.26,NE,49,2.0,8.0,71,0.00,,,0.00,149.0,meteohub,2013-04-17 19:35:00,
2013-04-17 14:41:00,40.3,32.0,30.25,SE,138,1.0,8.0,72,0.00,,,0.00,144.0,meteohub,2013-04-17 19:41:00,
2013-04-17 14:47:00,40.3,31.6,30.24,NE,51,1.0,9.0,71,0.00,,,0.00,162.0,meteohub,2013-04-17 19:47:00,
2013-04-17 14:54:00,40.3,31.6,30.23,ENE,61,3.0,9.0,71,0.00,,,0.00,190.0,meteohub,2013-04-17 19:54:00,
2013-04-17 15:00:00,40.6,32.0,30.22,NE,49,5.0,11.0,71,0.00,,,0.00,202.0,meteohub,2013-04-17 20:00:00,
2013-04-17 15:07:00,40.5,31.5,30.22,NE,41,7.0,11.0,70,0.00,,,0.00,155.0,meteohub,2013-04-17 20:07:00,
2013-04-17 15:12:00,40.5,31.8,30.22,ENE,67,1.0,14.0,71,0.00,,,0.00,146.0,meteohub,2013-04-17 20:12:00,
2013-04-17 15:18:00,40.6,31.6,30.22,East,88,3.0,14.0,70,0.00,,,0.00,127.0,meteohub,2013-04-17 20:18:00,
2013-04-17 15:25:00,40.6,31.6,30.23,ENE,59,5.0,12.0,70,0.00,,,0.00,109.0,meteohub,2013-04-17 20:25:00,
2013-04-17 15:31:00,40.6,31.6,30.23,East,94,3.0,11.0,70,0.00,,,0.00,114.0,meteohub,2013-04-17 20:31:00,
2013-04-17 15:37:00,40.8,31.8,30.22,ENE,61,3.0,11.0,70,0.00,,,0.00,125.0,meteohub,2013-04-17 20:37:00,
2013-04-17 15:43:00,40.6,31.6,30.22,NE,49,5.0,10.0,70,0.00,,,0.00,107.0,meteohub,2013-04-17 20:43:00,
2013-04-17 15:49:00,40.5,31.8,30.21,East,88,2.0,10.0,71,0.00,,,0.00,144.0,meteohub,2013-04-17 20:49:00,
2013-04-17 15:56:00,40.6,32.4,30.21,NE,44,3.0,10.0,72,0.00,,,0.00,153.0,meteohub,2013-04-17 20:56:00,
2013-04-17 16:02:00,40.6,32.4,30.21,NNE,28,4.0,9.0,72,0.00,,,0.00,142.0,meteohub,2013-04-17 21:02:00,
2013-04-17 16:08:00,40.5,32.2,30.21,NE,37,4.0,9.0,72,0.00,,,0.00,127.0,meteohub,2013-04-17 21:08:00,
2013-04-17 16:14:00,40.5,31.8,30.21,East,99,5.0,9.0,71,0.00,,,0.00,120.0,meteohub,2013-04-17 21:14:00,
2013-04-17 16:21:00,40.6,32.0,30.21,NE,50,3.0,10.0,71,0.00,,,0.00,104.0,meteohub,2013-04-17 21:21:00,
2013-04-17 16:27:00,40.6,32.0,30.21,NE,43,2.0,10.0,71,0.00,,,0.00,98.0,meteohub,2013-04-17 21:27:00,
2013-04-17 16:33:00,40.6,32.0,30.21,East,86,3.0,10.0,71,0.00,,,0.00,95.0,meteohub,2013-04-17 21:33:00,
2013-04-17 16:39:00,40.6,32.0,30.20,NE,42,4.0,10.0,71,0.00,,,0.00,114.0,meteohub,2013-04-17 21:39:00,
2013-04-17 16:46:00,40.6,32.0,30.19,ENE,71,7.0,10.0,71,0.00,,,0.00,120.0,meteohub,2013-04-17 21:46:00,
2013-04-17 16:52:00,40.6,32.0,30.18,NE,41,2.0,13.0,71,0.00,,,0.00,114.0,meteohub,2013-04-17 21:52:00,
2013-04-17 16:58:00,40.8,32.2,30.19,NE,42,1.0,13.0,71,0.00,,,0.00,91.0,meteohub,2013-04-17 21:58:00,
2013-04-17 17:04:00,40.6,32.4,30.19,NE,34,6.0,13.0,72,0.00,,,0.00,93.0,meteohub,2013-04-17 22:04:00,
2013-04-17 17:10:00,40.5,32.5,30.18,NNE,18,3.0,9.0,73,0.00,,,0.00,77.0,meteohub,2013-04-17 22:10:00,
2013-04-17 17:16:00,40.3,32.7,30.18,NE,42,2.0,9.0,74,0.00,,,0.00,77.0,meteohub,2013-04-17 22:16:00,
2013-04-17 17:23:00,39.9,32.7,30.17,ENE,66,14.0,14.0,75,0.00,,,0.00,70.0,meteohub,2013-04-17 22:23:00,
2013-04-17 17:29:00,39.7,32.7,30.17,NE,36,7.0,14.0,76,0.00,,,0.00,63.0,meteohub,2013-04-17 22:29:00,
2013-04-17 17:35:00,39.6,32.9,30.16,ENE,61,5.0,14.0,77,0.00,,,0.00,74.0,meteohub,2013-04-17 22:35:00,
2013-04-17 17:41:00,39.6,32.9,30.17,NE,46,2.0,12.0,77,0.00,,,0.00,56.0,meteohub,2013-04-17 22:41:00,
2013-04-17 17:47:00,39.6,32.9,30.16,NNE,19,3.0,12.0,77,0.00,,,0.00,67.0,meteohub,2013-04-17 22:47:00,
2013-04-17 17:52:00,39.6,33.6,30.16,ENE,67,5.0,10.0,79,0.00,,,0.00,67.0,meteohub,2013-04-17 22:52:00,
2013-04-17 17:58:00,39.4,34.0,30.15,NE,51,1.0,10.0,81,0.00,,,0.00,58.0,meteohub,2013-04-17 22:58:00,
2013-04-17 18:04:00,39.0,34.0,30.15,NE,43,5.0,17.0,82,0.00,,,0.00,54.0,meteohub,2013-04-17 23:04:00,
2013-04-17 18:11:00,38.7,34.2,30.15,NE,46,5.0,17.0,84,0.00,,,0.00,56.0,meteohub,2013-04-17 23:11:00,
2013-04-17 18:17:00,38.5,34.3,30.15,ENE,59,3.0,17.0,85,0.00,,,0.00,60.0,meteohub,2013-04-17 23:17:00,
2013-04-17 18:23:00,38.5,34.7,30.15,NE,44,6.0,14.0,86,0.00,,,0.00,46.0,meteohub,2013-04-17 23:23:00,
2013-04-17 18:29:00,38.3,34.7,30.14,NE,38,5.0,14.0,87,0.00,,,0.00,44.0,meteohub,2013-04-17 23:29:00,
2013-04-17 18:36:00,38.1,34.9,30.14,ENE,67,5.0,11.0,88,0.00,,,0.00,39.0,meteohub,2013-04-17 23:36:00,
2013-04-17 18:42:00,37.9,35.1,30.16,ENE,66,1.0,11.0,89,0.00,,,0.00,30.0,meteohub,2013-04-17 23:42:00,
2013-04-17 18:48:00,37.8,35.1,30.16,NE,36,3.0,11.0,90,0.00,,,0.00,26.0,meteohub,2013-04-17 23:48:00,
2013-04-17 18:54:00,37.6,34.9,30.16,ENE,63,7.0,11.0,90,0.00,,,0.00,21.0,meteohub,2013-04-17 23:54:00,
2013-04-17 19:01:00,37.6,35.2,30.16,ENE,63,5.0,11.0,91,0.00,,,0.01,25.0,meteohub,2013-04-18 00:01:00,
2013-04-17 19:07:00,37.4,35.2,30.15,NNE,23,5.0,8.0,92,0.01,,,0.01,21.0,meteohub,2013-04-18 00:07:00,
2013-04-17 19:14:00,37.2,35.1,30.14,NE,40,4.0,8.0,92,0.01,,,0.01,19.0,meteohub,2013-04-18 00:14:00,
2013-04-17 19:20:00,37.2,35.4,30.13,NE,51,2.0,8.0,93,0.02,,,0.02,12.0,meteohub,2013-04-18 00:20:00,
2013-04-17 19:26:00,37.0,35.2,30.14,NE,42,5.0,13.0,93,0.02,,,0.02,9.0,meteohub,2013-04-18 00:26:00,
2013-04-17 19:32:00,37.0,35.2,30.13,NNE,33,4.0,12.0,93,0.03,,,0.03,7.0,meteohub,2013-04-18 00:32:00,
2013-04-17 19:38:00,37.0,35.4,30.12,NE,38,7.0,12.0,94,0.03,,,0.03,7.0,meteohub,2013-04-18 00:38:00,
2013-04-17 19:44:00,37.0,35.4,30.13,NE,42,3.0,8.0,94,0.03,,,0.03,0.0,meteohub,2013-04-18 00:44:00,
2013-04-17 19:51:00,36.9,35.2,30.14,NNE,33,3.0,12.0,94,0.04,,,0.04,0.0,meteohub,2013-04-18 00:51:00,
2013-04-17 19:57:00,36.9,35.2,30.14,NNE,32,2.0,12.0,94,0.04,,,0.04,0.0,meteohub,2013-04-18 00:57:00,
2013-04-17 20:03:00,36.9,35.2,30.14,ENE,59,3.0,8.0,94,0.04,,,0.04,0.0,meteohub,2013-04-18 01:03:00,
2013-04-17 20:09:00,36.9,35.2,30.14,NE,51,1.0,8.0,94,0.04,,,0.04,0.0,meteohub,2013-04-18 01:09:00,
2013-04-17 20:16:00,36.9,35.2,30.14,NE,46,2.0,7.0,94,0.03,,,0.05,0.0,meteohub,2013-04-18 01:16:00,
2013-04-17 20:22:00,36.9,35.6,30.13,NE,40,4.0,7.0,95,0.03,,,0.05,0.0,meteohub,2013-04-18 01:22:00,
2013-04-17 20:28:00,36.9,35.6,30.14,NE,46,6.0,7.0,95,0.03,,,0.05,0.0,meteohub,2013-04-18 01:28:00,
2013-04-17 20:34:00,36.9,35.6,30.14,North,9,7.0,7.0,95,0.03,,,0.05,0.0,meteohub,2013-04-18 01:34:00,
2013-04-17 20:40:00,36.9,35.6,30.15,NE,46,2.0,8.0,95,0.02,,,0.06,0.0,meteohub,2013-04-18 01:40:00,
2013-04-17 20:46:00,36.9,35.6,30.15,NE,38,2.0,8.0,95,0.02,,,0.06,0.0,meteohub,2013-04-18 01:46:00,
2013-04-17 20:53:00,36.9,35.6,30.15,NE,36,4.0,8.0,95,0.02,,,0.07,0.0,meteohub,2013-04-18 01:53:00,
2013-04-17 20:59:00,36.9,35.6,30.15,NNE,23,6.0,8.0,95,0.03,,,0.07,0.0,meteohub,2013-04-18 01:59:00,
2013-04-17 21:05:00,36.9,35.6,30.16,NE,38,4.0,8.0,95,0.03,,,0.07,0.0,meteohub,2013-04-18 02:05:00,
2013-04-17 21:11:00,36.9,35.6,30.16,NE,40,5.0,8.0,95,0.02,,,0.07,0.0,meteohub,2013-04-18 02:11:00,
2013-04-17 21:17:00,36.9,35.6,30.16,NE,41,0.0,8.0,95,0.02,,,0.07,0.0,meteohub,2013-04-18 02:17:00,
2013-04-17 21:24:00,36.9,35.6,30.16,NE,49,1.0,7.0,95,0.02,,,0.07,0.0,meteohub,2013-04-18 02:24:00,
2013-04-17 21:30:00,36.5,35.2,30.17,NNE,33,3.0,6.0,95,0.02,,,0.08,0.0,meteohub,2013-04-18 02:30:00,
2013-04-17 21:36:00,35.8,34.5,30.17,North,5,3.0,6.0,95,0.02,,,0.09,0.0,meteohub,2013-04-18 02:36:00,
2013-04-17 21:42:00,35.4,34.2,30.16,NE,35,3.0,7.0,95,0.03,,,0.09,0.0,meteohub,2013-04-18 02:42:00,
2013-04-17 21:48:00,35.2,34.0,30.15,NNE,30,5.0,7.0,95,0.03,,,0.09,0.0,meteohub,2013-04-18 02:48:00,
2013-04-17 21:54:00,35.1,33.8,30.14,NE,39,4.0,7.0,95,0.03,,,0.09,0.0,meteohub,2013-04-18 02:54:00,
2013-04-17 22:01:00,34.9,33.6,30.14,NNE,29,5.0,13.0,95,0.03,,,0.09,0.0,meteohub,2013-04-18 03:01:00,
2013-04-17 22:07:00,34.5,33.3,30.13,NE,36,4.0,13.0,95,0.03,,,0.10,0.0,meteohub,2013-04-18 03:07:00,
2013-04-17 22:13:00,34.5,33.3,30.11,NE,34,4.0,10.0,95,0.03,,,0.10,0.0,meteohub,2013-04-18 03:13:00,
2013-04-17 22:19:00,34.3,33.1,30.09,NE,42,6.0,10.0,95,0.02,,,0.10,0.0,meteohub,2013-04-18 03:19:00,
2013-04-17 22:25:00,34.2,32.9,30.05,NNE,28,5.0,13.0,95,0.02,,,0.10,0.0,meteohub,2013-04-18 03:25:00,
2013-04-17 22:32:00,34.0,32.7,30.05,NE,39,3.0,15.0,95,0.02,,,0.10,0.0,meteohub,2013-04-18 03:32:00,
2013-04-17 22:38:00,34.0,32.7,30.09,North,355,8.0,15.0,95,0.02,,,0.10,0.0,meteohub,2013-04-18 03:38:00,
2013-04-17 22:44:00,34.0,32.7,30.09,NNE,18,6.0,20.0,95,0.02,,,0.10,0.0,meteohub,2013-04-18 03:44:00,
2013-04-17 22:50:00,34.0,32.7,30.08,NE,34,7.0,15.0,95,0.02,,,0.11,0.0,meteohub,2013-04-18 03:50:00,
2013-04-17 22:56:00,34.0,32.7,30.05,NE,42,9.0,15.0,95,0.02,,,0.12,0.0,meteohub,2013-04-18 03:56:00,
2013-04-17 23:02:00,34.0,32.7,30.05,NE,40,13.0,16.0,95,0.02,,,0.12,0.0,meteohub,2013-04-18 04:02:00,
2013-04-17 23:03:00,34.0,32.7,30.05,NE,35,4.0,16.0,95,0.02,,,0.12,0.0,meteohub,2013-04-18 04:03:00,
2013-04-17 23:09:00,34.0,32.7,30.07,North,355,5.0,16.0,95,0.02,,,0.12,0.0,meteohub,2013-04-18 04:09:00,
2013-04-17 23:11:00,34.0,32.7,30.07,ENE,63,8.0,16.0,95,0.02,,,0.12,0.0,meteohub,2013-04-18 04:11:00,
2013-04-17 23:15:00,34.0,32.7,30.08,NNE,19,4.0,15.0,95,0.02,,,0.12,0.0,meteohub,2013-04-18 04:15:00,
2013-04-17 23:21:00,34.0,32.7,30.08,NE,40,3.0,15.0,95,0.02,,,0.13,0.0,meteohub,2013-04-18 04:21:00,
2013-04-17 23:27:00,34.2,32.9,30.08,North,10,3.0,10.0,95,0.03,,,0.13,0.0,meteohub,2013-04-18 04:27:00,
2013-04-17 23:33:00,34.2,32.9,30.08,NE,34,3.0,10.0,95,0.03,,,0.13,0.0,meteohub,2013-04-18 04:33:00,
2013-04-17 23:40:00,34.2,32.9,30.07,NE,35,4.0,11.0,95,0.03,,,0.13,0.0,meteohub,2013-04-18 04:40:00,
2013-04-17 23:46:00,34.2,32.9,30.06,NNE,28,4.0,11.0,95,0.03,,,0.13,0.0,meteohub,2013-04-18 04:46:00,
2013-04-17 23:52:00,34.3,33.1,30.07,NE,40,3.0,14.0,95,0.03,,,0.14,0.0,meteohub,2013-04-18 04:52:00,
2013-04-17 23:59:00,34.3,33.1,30.07,NE,36,8.0,16.0,95,0.02,,,0.14,0.0,meteohub,2013-04-18 04:59:00,